Time,TemperatureF,DewpointF,PressureIn,WindDirection,WindDirectionDegrees,WindSpeedMPH,WindSpeedGustMPH,Humidity,HourlyPrecipIn,Conditions,Clouds,dailyrainin,SoftwareType,DateUTC
2014-01-08 00:01:00,6.2,-11.0,30.13,West,268,4.0,4.0,44,0.00,,CLR,0.00,VWS V13.01,2014-01-08 05:01:00,
2014-01-08 00:06:00,6.2,-11.5,30.13,SSW,204,4.0,11.0,43,0.00,,CLR,0.00,VWS V13.01,2014-01-08 05:06:00,
2014-01-08 00:11:00,6.2,-11.5,30.13,SSW,209,1.0,11.0,43,0.00,,CLR,0.00,VWS V13.01,2014-01-08 05:11:00,
2014-01-08 00:16:00,6.2,-11.5,30.13,SSE,148,0.0,11.0,43,0.00,,CLR,0.00,VWS V13.01,2014-01-08 05:16:00,
2014-01-08 00:21:00,6.2,-11.0,30.13,SW,234,2.0,11.0,44,0.00,,CLR,0.00,VWS V13.01,2014-01-08 05:21:00,
2014-01-08 00:26:00,6.2,-11.5,30.13,SSW,202,5.0,11.0,43,0.00,,CLR,0.00,VWS V13.01,2014-01-08 05:26:00,
2014-01-08 00:31:00,6.0,-11.2,30.15,WSW,239,6.0,10.0,44,0.00,,CLR,0.00,VWS V13.01,2014-01-08 05:31:00,
2014-01-08 00:36:00,6.0,-10.8,30.15,WSW,238,10.0,11.0,45,0.00,,CLR,0.00,VWS V13.01,2014-01-08 05:36:00,
2014-01-08 00:41:00,6.0,-11.2,30.15,SSW,211,4.0,13.0,44,0.00,,CLR,0.00,VWS V13.01,2014-01-08 05:41:00,
2014-01-08 00:46:00,6.0,-11.2,30.15,SE,141,4.0,13.0,44,0.00,,CLR,0.00,VWS V13.01,2014-01-08 05:46:00,
2014-01-08 00:51:00,6.0,-10.8,30.15,WSW,253,2.0,13.0,45,0.00,,CLR,0.00,VWS V13.01,2014-01-08 05:51:00,
2014-01-08 00:56:00,6.0,-10.8,30.15,West,266,5.0,13.0,45,0.00,,CLR,0.00,VWS V13.01,2014-01-08 05:56:00,
2014-01-08 01:01:00,6.0,-10.8,30.16,WSW,256,4.0,10.0,45,0.00,,CLR,0.00,VWS V13.01,2014-01-08 06:01:00,
2014-01-08 01:06:00,6.0,-10.8,30.16,SSW,196,4.0,10.0,45,0.00,,CLR,0.00,VWS V13.01,2014-01-08 06:06:00,
2014-01-08 01:11:00,6.0,-10.8,30.16,WSW,239,5.0,12.0,45,0.00,,CLR,0.00,VWS V13.01,2014-01-08 06:11:00,
2014-01-08 01:16:00,6.0,-10.8,30.16,WSW,252,5.0,12.0,45,0.00,,CLR,0.00,VWS V13.01,2014-01-08 06:16:00,
2014-01-08 01:21:00,6.0,-10.8,30.16,WSW,240,2.0,12.0,45,0.00,,CLR,0.00,VWS V13.01,2014-01-08 06:21:00,
2014-01-08 01:26:00,6.0,-10.3,30.16,SW,223,7.0,13.0,46,0.00,,CLR,0.00,VWS V13.01,2014-01-08 06:26:00,
2014-01-08 01:31:00,6.0,-10.3,30.17,SW,225,6.0,11.0,46,0.00,,CLR,0.00,VWS V13.01,2014-01-08 06:31:00,
2014-01-08 01:36:00,6.0,-10.3,30.17,SSW,209,7.0,11.0,46,0.00,,CLR,0.00,VWS V13.01,2014-01-08 06:36:00,
2014-01-08 01:41:00,6.0,-10.3,30.17,SW,232,1.0,12.0,46,0.00,,CLR,0.00,VWS V13.01,2014-01-08 06:41:00,
2014-01-08 01:46:00,6.0,-10.3,30.18,West,260,11.0,12.0,46,0.00,,CLR,0.00,VWS V13.01,2014-01-08 06:46:00,
2014-01-08 01:51:00,5.8,-10.5,30.18,SW,232,2.0,12.0,46,0.00,,CLR,0.00,VWS V13.01,2014-01-08 06:51:00,
2014-01-08 01:56:00,6.0,-10.3,30.18,SW,216,3.0,13.0,46,0.00,,CLR,0.00,VWS V13.01,2014-01-08 06:56:00,
2014-01-08 02:01:00,5.8,-10.1,30.18,WSW,242,10.0,11.0,47,0.00,,CLR,0.00,VWS V13.01,2014-01-08 07:01:00,
2014-01-08 02:06:00,5.8,-10.1,30.18,SW,225,1.0,13.0,47,0.00,,CLR,0.00,VWS V13.01,2014-01-08 07:06:00,
2014-01-08 02:11:00,5.8,-10.1,30.18,SW,216,5.0,13.0,47,0.00,,CLR,0.00,VWS V13.01,2014-01-08 07:11:00,
2014-01-08 02:16:00,5.8,-10.1,30.19,SW,229,4.0,13.0,47,0.00,,CLR,0.00,VWS V13.01,2014-01-08 07:16:00,
2014-01-08 02:21:00,5.8,-10.1,30.19,WSW,246,7.0,13.0,47,0.00,,CLR,0.00,VWS V13.01,2014-01-08 07:21:00,
2014-01-08 02:26:00,5.8,-10.1,30.19,SW,215,2.0,13.0,47,0.00,,CLR,0.00,VWS V13.01,2014-01-08 07:26:00,
2014-01-08 02:31:00,5.8,-9.6,30.20,SW,227,1.0,9.0,48,0.00,,CLR,0.00,VWS V13.01,2014-01-08 07:31:00,
2014-01-08 02:36:00,5.8,-9.6,30.20,WSW,258,6.0,11.0,48,0.00,,CLR,0.00,VWS V13.01,2014-01-08 07:36:00,
2014-01-08 02:41:00,5.8,-9.2,30.20,WNW,282,1.0,11.0,49,0.00,,CLR,0.00,VWS V13.01,2014-01-08 07:41:00,
2014-01-08 02:46:00,5.8,-9.6,30.21,SW,216,2.0,11.0,48,0.00,,CLR,0.00,VWS V13.01,2014-01-08 07:46:00,
2014-01-08 02:51:00,5.8,-9.6,30.21,WSW,239,5.0,11.0,48,0.00,,CLR,0.00,VWS V13.01,2014-01-08 07:51:00,
2014-01-08 02:56:00,5.8,-9.6,30.21,SSW,206,5.0,11.0,48,0.00,,CLR,0.00,VWS V13.01,2014-01-08 07:56:00,
2014-01-08 03:01:00,5.8,-9.6,30.22,SW,220,1.0,2.0,48,0.00,,CLR,0.00,VWS V13.01,2014-01-08 08:01:00,
2014-01-08 03:06:00,5.8,-9.2,30.22,West,260,10.0,10.0,49,0.00,,CLR,0.00,VWS V13.01,2014-01-08 08:06:00,
2014-01-08 03:11:00,5.8,-9.6,30.22,West,270,0.0,12.0,48,0.00,,CLR,0.00,VWS V13.01,2014-01-08 08:11:00,
2014-01-08 03:16:00,5.8,-9.2,30.22,WSW,253,1.0,15.0,49,0.00,,CLR,0.00,VWS V13.01,2014-01-08 08:16:00,
2014-01-08 03:21:00,5.6,-9.4,30.22,WNW,288,6.0,15.0,49,0.00,,CLR,0.00,VWS V13.01,2014-01-08 08:21:00,
2014-01-08 03:26:00,5.6,-9.4,30.22,SSW,200,4.0,15.0,49,0.00,,CLR,0.00,VWS V13.01,2014-01-08 08:26:00,
2014-01-08 03:31:00,5.6,-9.4,30.23,SW,223,4.0,5.0,49,0.00,,CLR,0.00,VWS V13.01,2014-01-08 08:31:00,
2014-01-08 03:36:00,5.6,-9.4,30.23,SE,132,0.0,7.0,49,0.00,,CLR,0.00,VWS V13.01,2014-01-08 08:36:00,
2014-01-08 03:41:00,5.6,-9.4,30.23,South,189,2.0,12.0,49,0.00,,CLR,0.00,VWS V13.01,2014-01-08 08:41:00,
2014-01-08 03:46:00,5.6,-9.4,30.23,SW,221,1.0,12.0,49,0.00,,CLR,0.00,VWS V13.01,2014-01-08 08:46:00,
2014-01-08 03:51:00,5.6,-9.0,30.23,SW,223,3.0,12.0,50,0.00,,CLR,0.00,VWS V13.01,2014-01-08 08:51:00,
2014-01-08 03:56:00,5.6,-9.0,30.23,SW,217,0.0,12.0,50,0.00,,CLR,0.00,VWS V13.01,2014-01-08 08:56:00,
2014-01-08 04:01:00,5.6,-9.0,30.23,SW,221,0.0,10.0,50,0.00,,CLR,0.00,VWS V13.01,2014-01-08 09:01:00,
2014-01-08 04:06:00,5.6,-9.0,30.23,SSE,164,0.0,10.0,50,0.00,,CLR,0.00,VWS V13.01,2014-01-08 09:06:00,
2014-01-08 04:11:00,5.6,-9.0,30.23,WSW,245,1.0,10.0,50,0.00,,CLR,0.00,VWS V13.01,2014-01-08 09:11:00,
2014-01-08 04:16:00,5.5,-9.1,30.24,SW,236,1.0,10.0,50,0.00,,CLR,0.00,VWS V13.01,2014-01-08 09:16:00,
2014-01-08 04:21:00,5.5,-9.1,30.24,SW,221,0.0,10.0,50,0.00,,CLR,0.00,VWS V13.01,2014-01-08 09:21:00,
2014-01-08 04:26:00,5.5,-9.1,30.24,WNW,282,6.0,10.0,50,0.00,,CLR,0.00,VWS V13.01,2014-01-08 09:26:00,
2014-01-08 04:31:00,5.5,-9.1,30.24,WSW,238,0.0,4.0,50,0.00,,CLR,0.00,VWS V13.01,2014-01-08 09:31:00,
2014-01-08 04:36:00,5.5,-9.1,30.24,SW,232,1.0,5.0,50,0.00,,CLR,0.00,VWS V13.01,2014-01-08 09:36:00,
2014-01-08 04:41:00,5.5,-8.7,30.24,SW,235,5.0,6.0,51,0.00,,CLR,0.00,VWS V13.01,2014-01-08 09:41:00,
2014-01-08 04:46:00,5.5,-8.7,30.24,SW,223,0.0,6.0,51,0.00,,CLR,0.00,VWS V13.01,2014-01-08 09:46:00,
2014-01-08 04:51:00,5.5,-8.7,30.24,SSW,201,2.0,6.0,51,0.00,,CLR,0.00,VWS V13.01,2014-01-08 09:51:00,
2014-01-08 04:56:00,5.5,-8.7,30.24,SSW,196,0.0,6.0,51,0.00,,CLR,0.00,VWS V13.01,2014-01-08 09:56:00,
2014-01-08 05:01:00,5.5,-8.7,30.25,WSW,242,0.0,6.0,51,0.00,,CLR,0.00,VWS V13.01,2014-01-08 10:01:00,
2014-01-08 05:06:00,5.5,-8.7,30.25,SSE,151,0.0,6.0,51,0.00,,CLR,0.00,VWS V13.01,2014-01-08 10:06:00,
2014-01-08 05:11:00,5.3,-8.9,30.25,SSW,200,0.0,6.0,51,0.00,,CLR,0.00,VWS V13.01,2014-01-08 10:11:00,
2014-01-08 05:16:00,5.3,-8.5,30.26,SW,222,1.0,6.0,52,0.00,,CLR,0.00,VWS V13.01,2014-01-08 10:16:00,
2014-01-08 05:21:00,5.3,-8.5,30.26,South,191,0.0,6.0,52,0.00,,CLR,0.00,VWS V13.01,2014-01-08 10:21:00,
2014-01-08 05:26:00,5.3,-8.5,30.26,SSW,205,1.0,9.0,52,0.00,,CLR,0.00,VWS V13.01,2014-01-08 10:26:00,
2014-01-08 05:31:00,5.3,-8.5,30.26,SW,215,2.0,6.0,52,0.00,,CLR,0.00,VWS V13.01,2014-01-08 10:31:00,
2014-01-08 05:36:00,5.3,-8.5,30.26,South,188,0.0,7.0,52,0.00,,CLR,0.00,VWS V13.01,2014-01-08 10:36:00,
2014-01-08 05:41:00,5.3,-8.5,30.26,SW,232,0.0,7.0,52,0.00,,CLR,0.00,VWS V13.01,2014-01-08 10:41:00,
2014-01-08 05:46:00,5.3,-8.1,30.27,SSW,210,2.0,8.0,53,0.00,,CLR,0.00,VWS V13.01,2014-01-08 10:46:00,
2014-01-08 05:51:00,5.3,-8.1,30.27,SW,221,0.0,8.0,53,0.00,,CLR,0.00,VWS V13.01,2014-01-08 10:51:00,
2014-01-08 05:56:00,5.3,-8.1,30.27,South,188,4.0,8.0,53,0.00,,CLR,0.00,VWS V13.01,2014-01-08 10:56:00,
2014-01-08 06:01:00,5.3,-8.1,30.29,South,185,0.0,5.0,53,0.00,,CLR,0.00,VWS V13.01,2014-01-08 11:01:00,
2014-01-08 06:06:00,5.3,-8.1,30.29,South,183,0.0,7.0,53,0.00,,CLR,0.00,VWS V13.01,2014-01-08 11:06:00,
2014-01-08 06:11:00,5.3,-8.1,30.29,South,182,2.0,7.0,53,0.00,,CLR,0.00,VWS V13.01,2014-01-08 11:11:00,
2014-01-08 06:16:00,5.5,-7.9,30.29,South,190,2.0,7.0,53,0.00,,CLR,0.00,VWS V13.01,2014-01-08 11:16:00,
2014-01-08 06:21:00,5.5,-7.9,30.29,SSE,150,0.0,7.0,53,0.00,,CLR,0.00,VWS V13.01,2014-01-08 11:21:00,
2014-01-08 06:26:00,5.5,-7.9,30.29,SSE,166,0.0,7.0,53,0.00,,CLR,0.00,VWS V13.01,2014-01-08 11:26:00,
2014-01-08 06:31:00,5.5,-7.9,30.29,SSE,167,0.0,2.0,53,0.00,,CLR,0.00,VWS V13.01,2014-01-08 11:31:00,
2014-01-08 06:36:00,5.3,-7.7,30.29,South,187,0.0,2.0,54,0.00,,CLR,0.00,VWS V13.01,2014-01-08 11:36:00,
2014-01-08 06:41:00,5.3,-7.7,30.29,South,186,1.0,3.0,54,0.00,,CLR,0.00,VWS V13.01,2014-01-08 11:41:00,
2014-01-08 06:46:00,5.3,-7.7,30.29,SSW,198,2.0,3.0,54,0.00,,CLR,0.00,VWS V13.01,2014-01-08 11:46:00,
2014-01-08 06:51:00,5.3,-7.7,30.29,South,187,2.0,4.0,54,0.00,,CLR,0.00,VWS V13.01,2014-01-08 11:51:00,
2014-01-08 06:56:00,5.1,-7.9,30.29,South,183,1.0,5.0,54,0.00,,CLR,0.00,VWS V13.01,2014-01-08 11:56:00,
2014-01-08 07:01:00,5.1,-7.5,30.30,South,172,1.0,2.0,55,0.00,,CLR,0.00,VWS V13.01,2014-01-08 12:01:00,
2014-01-08 07:06:00,5.1,-7.5,30.30,SSW,204,1.0,4.0,55,0.00,,CLR,0.00,VWS V13.01,2014-01-08 12:06:00,
2014-01-08 07:11:00,4.9,-7.3,30.30,SSE,148,1.0,6.0,56,0.00,,CLR,0.00,VWS V13.01,2014-01-08 12:11:00,
2014-01-08 07:16:00,4.9,-7.3,30.31,SSW,192,1.0,6.0,56,0.00,,CLR,0.00,VWS V13.01,2014-01-08 12:16:00,
2014-01-08 07:21:00,4.9,-7.3,30.31,South,185,3.0,8.0,56,0.00,,CLR,0.00,VWS V13.01,2014-01-08 12:21:00,
2014-01-08 07:26:00,4.7,-7.5,30.31,South,179,0.0,8.0,56,0.00,,CLR,0.00,VWS V13.01,2014-01-08 12:26:00,
2014-01-08 07:31:00,4.7,-7.5,30.31,SSW,206,4.0,5.0,56,0.00,,CLR,0.00,VWS V13.01,2014-01-08 12:31:00,
2014-01-08 07:36:00,4.7,-7.2,30.31,SW,214,6.0,7.0,57,0.00,,CLR,0.00,VWS V13.01,2014-01-08 12:36:00,
2014-01-08 07:41:00,4.7,-7.2,30.31,SW,235,2.0,7.0,57,0.00,,CLR,0.00,VWS V13.01,2014-01-08 12:41:00,
2014-01-08 07:46:00,4.7,-7.2,30.31,SSW,202,5.0,8.0,57,0.00,,CLR,0.00,VWS V13.01,2014-01-08 12:46:00,
2014-01-08 07:51:00,4.9,-7.0,30.31,SSW,206,2.0,8.0,57,0.00,,CLR,0.00,VWS V13.01,2014-01-08 12:51:00,
2014-01-08 07:56:00,4.9,-7.0,30.31,SSW,206,5.0,8.0,57,0.00,,CLR,0.00,VWS V13.01,2014-01-08 12:56:00,
2014-01-08 08:01:00,4.9,-7.0,30.31,South,176,5.0,8.0,57,0.00,,CLR,0.00,VWS V13.01,2014-01-08 13:01:00,
2014-01-08 08:06:00,5.1,-7.2,30.31,SW,214,3.0,10.0,56,0.00,,CLR,0.00,VWS V13.01,2014-01-08 13:06:00,
2014-01-08 08:11:00,5.3,-7.0,30.31,SSW,192,5.0,12.0,56,0.00,,CLR,0.00,VWS V13.01,2014-01-08 13:11:00,
2014-01-08 08:16:00,5.5,-6.8,30.32,SW,220,6.0,12.0,56,0.00,,CLR,0.00,VWS V13.01,2014-01-08 13:16:00,
2014-01-08 08:21:00,5.6,-6.7,30.32,SSW,210,5.0,13.0,56,0.00,,CLR,0.00,VWS V13.01,2014-01-08 13:21:00,
2014-01-08 08:26:00,5.8,-6.9,30.32,SSW,209,6.0,13.0,55,0.00,,CLR,0.00,VWS V13.01,2014-01-08 13:26:00,
2014-01-08 08:31:00,6.0,-6.7,30.33,NW,311,9.0,15.0,55,0.00,,CLR,0.00,VWS V13.01,2014-01-08 13:31:00,
2014-01-08 08:36:00,6.4,-6.7,30.33,SSW,202,4.0,15.0,54,0.00,,CLR,0.00,VWS V13.01,2014-01-08 13:36:00,
2014-01-08 08:41:00,6.5,-6.6,30.33,SSE,157,4.0,15.0,54,0.00,,CLR,0.00,VWS V13.01,2014-01-08 13:41:00,
2014-01-08 08:46:00,6.7,-6.4,30.34,SW,234,2.0,15.0,54,0.00,,CLR,0.00,VWS V13.01,2014-01-08 13:46:00,
2014-01-08 08:51:00,6.9,-6.6,30.34,SSW,209,10.0,15.0,53,0.00,,CLR,0.00,VWS V13.01,2014-01-08 13:51:00,
2014-01-08 08:56:00,7.1,-6.4,30.34,South,188,7.0,15.0,53,0.00,,CLR,0.00,VWS V13.01,2014-01-08 13:56:00,
2014-01-08 09:01:00,7.4,-6.5,30.35,SW,234,5.0,10.0,52,0.00,,CLR,0.00,VWS V13.01,2014-01-08 14:01:00,
2014-01-08 09:06:00,7.4,-6.5,30.35,SW,233,0.0,11.0,52,0.00,,CLR,0.00,VWS V13.01,2014-01-08 14:06:00,
2014-01-08 09:11:00,7.8,-6.2,30.35,SW,219,6.0,12.0,52,0.00,,CLR,0.00,VWS V13.01,2014-01-08 14:11:00,
2014-01-08 09:16:00,7.9,-6.1,30.35,SW,220,10.0,12.0,52,0.00,,CLR,0.00,VWS V13.01,2014-01-08 14:16:00,
2014-01-08 09:21:00,8.1,-6.3,30.35,SW,236,5.0,12.0,51,0.00,,CLR,0.00,VWS V13.01,2014-01-08 14:21:00,
2014-01-08 09:26:00,8.3,-6.1,30.35,SSE,167,1.0,12.0,51,0.00,,CLR,0.00,VWS V13.01,2014-01-08 14:26:00,
2014-01-08 09:31:00,8.5,-5.9,30.35,SW,222,4.0,5.0,51,0.00,,CLR,0.00,VWS V13.01,2014-01-08 14:31:00,
2014-01-08 09:36:00,8.8,-5.6,30.35,West,263,6.0,11.0,51,0.00,,CLR,0.00,VWS V13.01,2014-01-08 14:36:00,
2014-01-08 09:41:00,9.2,-5.7,30.35,SW,215,11.0,13.0,50,0.00,,CLR,0.00,VWS V13.01,2014-01-08 14:41:00,
2014-01-08 09:46:00,9.4,-5.5,30.35,SSW,192,1.0,13.0,50,0.00,,CLR,0.00,VWS V13.01,2014-01-08 14:46:00,
2014-01-08 09:51:00,9.7,-5.2,30.35,South,191,5.0,13.0,50,0.00,,CLR,0.00,VWS V13.01,2014-01-08 14:51:00,
2014-01-08 09:56:00,9.9,-5.4,30.35,SSE,161,3.0,13.0,49,0.00,,CLR,0.00,VWS V13.01,2014-01-08 14:56:00,
2014-01-08 10:01:00,10.4,-4.6,30.37,WNW,299,2.0,7.0,50,0.00,,CLR,0.00,VWS V13.01,2014-01-08 15:01:00,
2014-01-08 10:06:00,11.1,-4.8,30.37,WSW,252,6.0,10.0,48,0.00,,CLR,0.00,VWS V13.01,2014-01-08 15:06:00,
2014-01-08 10:11:00,11.1,-4.8,30.37,SW,234,4.0,12.0,48,0.00,,CLR,0.00,VWS V13.01,2014-01-08 15:11:00,
2014-01-08 10:16:00,11.4,-4.9,30.37,South,190,6.0,12.0,47,0.00,,CLR,0.00,VWS V13.01,2014-01-08 15:16:00,
2014-01-08 10:21:00,11.8,-4.5,30.37,SW,219,9.0,12.0,47,0.00,,CLR,0.00,VWS V13.01,2014-01-08 15:21:00,
2014-01-08 10:26:00,11.8,-5.0,30.37,SW,223,7.0,15.0,46,0.00,,CLR,0.00,VWS V13.01,2014-01-08 15:26:00,
2014-01-08 10:31:00,12.3,-4.5,30.36,SSW,205,5.0,9.0,46,0.00,,CLR,0.00,VWS V13.01,2014-01-08 15:31:00,
2014-01-08 10:36:00,12.8,-4.1,30.36,SSW,211,1.0,12.0,46,0.00,,CLR,0.00,VWS V13.01,2014-01-08 15:36:00,
2014-01-08 10:41:00,13.1,-3.8,30.36,WSW,253,6.0,14.0,46,0.00,,CLR,0.00,VWS V13.01,2014-01-08 15:41:00,
2014-01-08 10:46:00,13.1,-3.8,30.35,South,177,1.0,14.0,46,0.00,,CLR,0.00,VWS V13.01,2014-01-08 15:46:00,
2014-01-08 10:51:00,13.5,-3.9,30.35,SSW,199,7.0,14.0,45,0.00,,CLR,0.00,VWS V13.01,2014-01-08 15:51:00,
2014-01-08 10:56:00,13.5,-4.3,30.35,West,271,6.0,16.0,44,0.00,,CLR,0.00,VWS V13.01,2014-01-08 15:56:00,
2014-01-08 11:01:00,13.8,-4.1,30.35,South,175,6.0,12.0,44,0.00,,CLR,0.00,VWS V13.01,2014-01-08 16:01:00,
2014-01-08 11:06:00,13.8,-4.1,30.35,West,279,13.0,13.0,44,0.00,,CLR,0.00,VWS V13.01,2014-01-08 16:06:00,
2014-01-08 11:11:00,14.3,-3.6,30.35,South,174,3.0,19.0,44,0.00,,CLR,0.00,VWS V13.01,2014-01-08 16:11:00,
2014-01-08 11:16:00,14.6,-3.3,30.34,WNW,294,9.0,19.0,44,0.00,,CLR,0.00,VWS V13.01,2014-01-08 16:16:00,
2014-01-08 11:21:00,14.7,-3.2,30.34,SSE,156,4.0,19.0,44,0.00,,CLR,0.00,VWS V13.01,2014-01-08 16:21:00,
2014-01-08 11:26:00,14.9,-3.5,30.34,South,170,5.0,19.0,43,0.00,,CLR,0.00,VWS V13.01,2014-01-08 16:26:00,
2014-01-08 11:31:00,15.1,-3.8,30.33,SW,217,8.0,10.0,42,0.00,,CLR,0.00,VWS V13.01,2014-01-08 16:31:00,
2014-01-08 11:36:00,15.2,-3.3,30.33,WSW,252,4.0,14.0,43,0.00,,CLR,0.00,VWS V13.01,2014-01-08 16:36:00,
2014-01-08 11:41:00,18.1,-1.1,30.33,SSW,198,10.0,14.0,42,0.00,,CLR,0.00,VWS V13.01,2014-01-08 16:41:00,
2014-01-08 11:46:00,20.0,-1.5,30.32,SW,232,5.0,14.0,38,0.00,,CLR,0.00,VWS V13.01,2014-01-08 16:46:00,
2014-01-08 11:51:00,19.8,-1.7,30.32,SE,126,0.0,14.0,38,0.00,,CLR,0.00,VWS V13.01,2014-01-08 16:51:00,
2014-01-08 11:56:00,18.4,-2.4,30.32,South,191,9.0,14.0,39,0.00,,CLR,0.00,VWS V13.01,2014-01-08 16:56:00,
2014-01-08 12:01:00,17.8,-4.1,30.31,WSW,249,7.0,7.0,37,0.00,,CLR,0.00,VWS V13.01,2014-01-08 17:01:00,
2014-01-08 12:06:00,16.4,-3.2,30.31,SW,227,4.0,11.0,41,0.00,,CLR,0.00,VWS V13.01,2014-01-08 17:06:00,
2014-01-08 12:11:00,17.8,-2.4,30.31,SSW,211,8.0,11.0,40,0.00,,CLR,0.00,VWS V13.01,2014-01-08 17:11:00,
2014-01-08 12:16:00,16.7,-2.4,30.30,SSW,211,5.0,11.0,42,0.00,,CLR,0.00,VWS V13.01,2014-01-08 17:16:00,
2014-01-08 12:21:00,16.4,-3.2,30.30,West,271,5.0,12.0,41,0.00,,CLR,0.00,VWS V13.01,2014-01-08 17:21:00,
2014-01-08 12:26:00,16.4,-2.7,30.30,WNW,298,8.0,12.0,42,0.00,,CLR,0.00,VWS V13.01,2014-01-08 17:26:00,
2014-01-08 12:31:00,16.7,-2.4,30.30,WSW,238,2.0,6.0,42,0.00,,CLR,0.00,VWS V13.01,2014-01-08 17:31:00,
2014-01-08 12:36:00,16.8,-2.3,30.30,WSW,246,9.0,13.0,42,0.00,,CLR,0.00,VWS V13.01,2014-01-08 17:36:00,
2014-01-08 12:41:00,16.7,-2.4,30.30,SSW,212,3.0,18.0,42,0.00,,CLR,0.00,VWS V13.01,2014-01-08 17:41:00,
2014-01-08 12:46:00,17.0,-3.1,30.30,WSW,243,4.0,18.0,40,0.00,,CLR,0.00,VWS V13.01,2014-01-08 17:46:00,
2014-01-08 12:51:00,17.3,-1.9,30.30,South,170,7.0,18.0,42,0.00,,CLR,0.00,VWS V13.01,2014-01-08 17:51:00,
2014-01-08 12:56:00,17.3,-3.4,30.30,SW,231,5.0,18.0,39,0.00,,CLR,0.00,VWS V13.01,2014-01-08 17:56:00,
2014-01-08 13:01:00,17.5,-2.7,30.30,WSW,246,5.0,8.0,40,0.00,,CLR,0.00,VWS V13.01,2014-01-08 18:01:00,
2014-01-08 13:06:00,17.6,-2.6,30.30,West,271,1.0,9.0,40,0.00,,CLR,0.00,VWS V13.01,2014-01-08 18:06:00,
2014-01-08 13:11:00,17.8,-2.4,30.30,SW,223,10.0,16.0,40,0.00,,CLR,0.00,VWS V13.01,2014-01-08 18:11:00,
2014-01-08 13:16:00,17.6,-2.6,30.30,SW,220,6.0,18.0,40,0.00,,CLR,0.00,VWS V13.01,2014-01-08 18:16:00,
2014-01-08 13:21:00,17.8,-2.4,30.30,SW,218,11.0,18.0,40,0.00,,CLR,0.00,VWS V13.01,2014-01-08 18:21:00,
2014-01-08 13:26:00,17.9,-2.3,30.30,SW,233,7.0,18.0,40,0.00,,CLR,0.00,VWS V13.01,2014-01-08 18:26:00,
2014-01-08 13:31:00,17.9,-2.9,30.29,SW,217,4.0,7.0,39,0.00,,CLR,0.00,VWS V13.01,2014-01-08 18:31:00,
2014-01-08 13:36:00,18.1,-2.2,30.29,SW,225,5.0,12.0,40,0.00,,CLR,0.00,VWS V13.01,2014-01-08 18:36:00,
2014-01-08 13:41:00,18.3,-2.0,30.29,WSW,257,15.0,15.0,40,0.00,,CLR,0.00,VWS V13.01,2014-01-08 18:41:00,
2014-01-08 13:46:00,17.9,-2.3,30.29,West,271,12.0,15.0,40,0.00,,CLR,0.00,VWS V13.01,2014-01-08 18:46:00,
2014-01-08 13:51:00,17.9,-2.9,30.29,West,278,5.0,15.0,39,0.00,,CLR,0.00,VWS V13.01,2014-01-08 18:51:00,
2014-01-08 13:56:00,18.4,-1.9,30.29,West,273,4.0,15.0,40,0.00,,CLR,0.00,VWS V13.01,2014-01-08 18:56:00,
2014-01-08 14:01:00,18.6,-2.2,30.28,WNW,298,3.0,7.0,39,0.00,,CLR,0.00,VWS V13.01,2014-01-08 19:01:00,
2014-01-08 14:06:00,18.7,-2.1,30.28,SSW,211,11.0,16.0,39,0.00,,CLR,0.00,VWS V13.01,2014-01-08 19:06:00,
2014-01-08 14:11:00,18.9,-2.0,30.28,SSW,211,6.0,16.0,39,0.00,,CLR,0.00,VWS V13.01,2014-01-08 19:11:00,
2014-01-08 14:16:00,18.9,-1.4,30.29,SSW,205,8.0,16.0,40,0.00,,CLR,0.00,VWS V13.01,2014-01-08 19:16:00,
2014-01-08 14:21:00,18.9,-2.0,30.29,WSW,248,3.0,16.0,39,0.00,,CLR,0.00,VWS V13.01,2014-01-08 19:21:00,
2014-01-08 14:26:00,18.9,-2.0,30.29,WSW,239,4.0,16.0,39,0.00,,CLR,0.00,VWS V13.01,2014-01-08 19:26:00,
2014-01-08 14:31:00,19.0,-1.3,30.29,WNW,287,4.0,7.0,40,0.00,,CLR,0.00,VWS V13.01,2014-01-08 19:31:00,
2014-01-08 14:36:00,18.9,-2.0,30.29,SW,219,2.0,11.0,39,0.00,,CLR,0.00,VWS V13.01,2014-01-08 19:36:00,
2014-01-08 14:41:00,18.9,-2.0,30.29,WSW,258,8.0,13.0,39,0.00,,CLR,0.00,VWS V13.01,2014-01-08 19:41:00,
2014-01-08 14:46:00,19.0,-1.9,30.29,SW,217,4.0,13.0,39,0.00,,CLR,0.00,VWS V13.01,2014-01-08 19:46:00,
2014-01-08 14:51:00,19.2,-1.1,30.29,WSW,248,7.0,13.0,40,0.00,,CLR,0.00,VWS V13.01,2014-01-08 19:51:00,
2014-01-08 14:56:00,19.2,-1.1,30.29,SW,222,9.0,14.0,40,0.00,,CLR,0.00,VWS V13.01,2014-01-08 19:56:00,
2014-01-08 15:01:00,19.2,-1.1,30.29,SW,226,2.0,6.0,40,0.00,,CLR,0.00,VWS V13.01,2014-01-08 20:01:00,
2014-01-08 15:06:00,18.9,-2.0,30.29,WSW,242,8.0,14.0,39,0.00,,CLR,0.00,VWS V13.01,2014-01-08 20:06:00,
2014-01-08 15:11:00,18.9,-2.0,30.29,SW,217,8.0,14.0,39,0.00,,CLR,0.00,VWS V13.01,2014-01-08 20:11:00,
2014-01-08 15:16:00,18.9,-1.4,30.29,NW,309,6.0,14.0,40,0.00,,CLR,0.00,VWS V13.01,2014-01-08 20:16:00,
2014-01-08 15:21:00,19.0,-1.3,30.29,West,279,11.0,14.0,40,0.00,,CLR,0.00,VWS V13.01,2014-01-08 20:21:00,
2014-01-08 15:26:00,18.9,-1.4,30.29,West,260,3.0,14.0,40,0.00,,CLR,0.00,VWS V13.01,2014-01-08 20:26:00,
2014-01-08 15:31:00,18.7,-1.6,30.30,SW,218,5.0,7.0,40,0.00,,CLR,0.00,VWS V13.01,2014-01-08 20:31:00,
2014-01-08 15:36:00,18.7,-1.1,30.30,West,279,8.0,9.0,41,0.00,,CLR,0.00,VWS V13.01,2014-01-08 20:36:00,
2014-01-08 15:41:00,18.6,-1.2,30.30,SW,225,2.0,9.0,41,0.00,,CLR,0.00,VWS V13.01,2014-01-08 20:41:00,
2014-01-08 15:46:00,18.6,-1.2,30.29,WSW,258,5.0,9.0,41,0.00,,CLR,0.00,VWS V13.01,2014-01-08 20:46:00,
2014-01-08 15:51:00,18.4,-0.9,30.29,WSW,242,6.0,10.0,42,0.00,,CLR,0.00,VWS V13.01,2014-01-08 20:51:00,
2014-01-08 15:56:00,18.4,-0.9,30.29,WSW,246,5.0,10.0,42,0.00,,CLR,0.00,VWS V13.01,2014-01-08 20:56:00,
2014-01-08 16:01:00,18.3,-0.9,30.29,SW,229,1.0,5.0,42,0.00,,CLR,0.00,VWS V13.01,2014-01-08 21:01:00,
2014-01-08 16:06:00,18.3,-0.9,30.29,West,259,3.0,7.0,42,0.00,,CLR,0.00,VWS V13.01,2014-01-08 21:06:00,
2014-01-08 16:11:00,18.1,-1.1,30.29,West,267,1.0,10.0,42,0.00,,CLR,0.00,VWS V13.01,2014-01-08 21:11:00,
2014-01-08 16:16:00,17.9,-0.8,30.30,West,271,5.0,10.0,43,0.00,,CLR,0.00,VWS V13.01,2014-01-08 21:16:00,
2014-01-08 16:21:00,17.8,-0.9,30.30,SW,234,0.0,10.0,43,0.00,,CLR,0.00,VWS V13.01,2014-01-08 21:21:00,
2014-01-08 16:26:00,17.6,-1.1,30.30,WSW,257,0.0,10.0,43,0.00,,CLR,0.00,VWS V13.01,2014-01-08 21:26:00,
2014-01-08 16:31:00,17.5,-1.2,30.30,WSW,240,7.0,8.0,43,0.00,,CLR,0.00,VWS V13.01,2014-01-08 21:31:00,
2014-01-08 16:36:00,17.5,-0.7,30.30,West,272,1.0,8.0,44,0.00,,CLR,0.00,VWS V13.01,2014-01-08 21:36:00,
2014-01-08 16:41:00,17.3,-0.9,30.30,WSW,252,2.0,10.0,44,0.00,,CLR,0.00,VWS V13.01,2014-01-08 21:41:00,
2014-01-08 16:46:00,17.2,-0.5,30.30,West,269,1.0,10.0,45,0.00,,CLR,0.00,VWS V13.01,2014-01-08 21:46:00,
2014-01-08 16:51:00,17.0,-0.7,30.30,SW,219,1.0,10.0,45,0.00,,CLR,0.00,VWS V13.01,2014-01-08 21:51:00,
2014-01-08 16:56:00,16.8,-0.4,30.30,South,188,5.0,10.0,46,0.00,,CLR,0.00,VWS V13.01,2014-01-08 21:56:00,
2014-01-08 17:01:00,16.8,-0.9,30.31,SW,219,0.0,3.0,45,0.00,,CLR,0.00,VWS V13.01,2014-01-08 22:01:00,
2014-01-08 17:06:00,16.7,-0.5,30.31,West,259,2.0,7.0,46,0.00,,CLR,0.00,VWS V13.01,2014-01-08 22:06:00,
2014-01-08 17:11:00,16.7,-0.5,30.31,West,259,1.0,7.0,46,0.00,,CLR,0.00,VWS V13.01,2014-01-08 22:11:00,
2014-01-08 17:16:00,16.2,0.4,30.32,West,259,0.0,7.0,49,0.00,,CLR,0.00,VWS V13.01,2014-01-08 22:16:00,
2014-01-08 17:21:00,15.7,0.4,30.32,West,259,0.0,7.0,50,0.00,,CLR,0.00,VWS V13.01,2014-01-08 22:21:00,
2014-01-08 17:26:00,15.4,1.3,30.32,West,259,0.0,7.0,53,0.00,,CLR,0.00,VWS V13.01,2014-01-08 22:26:00,
2014-01-08 17:31:00,15.1,1.1,30.32,West,259,0.0,0.0,53,0.00,,CLR,0.00,VWS V13.01,2014-01-08 22:31:00,
2014-01-08 17:36:00,14.7,1.1,30.32,West,259,0.0,0.0,54,0.00,,CLR,0.00,VWS V13.01,2014-01-08 22:36:00,
2014-01-08 17:41:00,14.4,1.2,30.32,West,259,0.0,0.0,55,0.00,,CLR,0.00,VWS V13.01,2014-01-08 22:41:00,
2014-01-08 17:46:00,14.3,1.5,30.33,West,259,0.0,0.0,56,0.00,,CLR,0.00,VWS V13.01,2014-01-08 22:46:00,
2014-01-08 17:51:00,14.1,1.3,30.33,West,259,0.0,0.0,56,0.00,,CLR,0.00,VWS V13.01,2014-01-08 22:51:00,
2014-01-08 17:56:00,13.8,1.4,30.33,West,259,0.0,0.0,57,0.00,,CLR,0.00,VWS V13.01,2014-01-08 22:56:00,
2014-01-08 18:01:00,13.8,1.4,30.33,West,259,0.0,0.0,57,0.00,,CLR,0.00,VWS V13.01,2014-01-08 23:01:00,
2014-01-08 18:06:00,13.6,1.6,30.33,West,259,0.0,2.0,58,0.00,,CLR,0.00,VWS V13.01,2014-01-08 23:06:00,
2014-01-08 18:11:00,13.6,1.6,30.33,WSW,258,0.0,2.0,58,0.00,,CLR,0.00,VWS V13.01,2014-01-08 23:11:00,
2014-01-08 18:16:00,13.5,1.5,30.33,WSW,258,0.0,2.0,58,0.00,,CLR,0.00,VWS V13.01,2014-01-08 23:16:00,
2014-01-08 18:21:00,13.1,1.5,30.33,WSW,258,0.0,2.0,59,0.00,,CLR,0.00,VWS V13.01,2014-01-08 23:21:00,
2014-01-08 18:26:00,13.0,1.7,30.33,WSW,258,0.0,2.0,60,0.00,,CLR,0.00,VWS V13.01,2014-01-08 23:26:00,
2014-01-08 18:31:00,12.8,2.2,30.33,WSW,258,0.0,0.0,62,0.00,,CLR,0.00,VWS V13.01,2014-01-08 23:31:00,
2014-01-08 18:36:00,12.8,2.2,30.33,WSW,258,0.0,0.0,62,0.00,,CLR,0.00,VWS V13.01,2014-01-08 23:36:00,
2014-01-08 18:41:00,12.8,2.6,30.33,WSW,258,0.0,0.0,63,0.00,,CLR,0.00,VWS V13.01,2014-01-08 23:41:00,
2014-01-08 18:46:00,12.6,2.4,30.33,WSW,258,0.0,2.0,63,0.00,,CLR,0.00,VWS V13.01,2014-01-08 23:46:00,
2014-01-08 18:51:00,12.6,2.4,30.33,WSW,258,0.0,2.0,63,0.00,,CLR,0.00,VWS V13.01,2014-01-08 23:51:00,
2014-01-08 18:56:00,12.4,2.2,30.33,WSW,258,0.0,2.0,63,0.00,,CLR,0.00,VWS V13.01,2014-01-08 23:56:00,
2014-01-08 19:01:00,12.6,2.1,30.33,WSW,258,0.0,0.0,62,0.00,,CLR,0.00,VWS V13.01,2014-01-09 00:01:00,
2014-01-08 19:06:00,12.8,1.9,30.33,WSW,257,1.0,2.0,61,0.00,,CLR,0.00,VWS V13.01,2014-01-09 00:06:00,
2014-01-08 19:11:00,13.0,1.7,30.33,WSW,257,0.0,2.0,60,0.00,,CLR,0.00,VWS V13.01,2014-01-09 00:11:00,
2014-01-08 19:16:00,13.1,1.5,30.34,WSW,256,0.0,2.0,59,0.00,,CLR,0.00,VWS V13.01,2014-01-09 00:16:00,
2014-01-08 19:21:00,13.1,1.5,30.34,WSW,256,0.0,2.0,59,0.00,,CLR,0.00,VWS V13.01,2014-01-09 00:21:00,
2014-01-08 19:26:00,13.1,2.2,30.34,WSW,256,0.0,2.0,61,0.00,,CLR,0.00,VWS V13.01,2014-01-09 00:26:00,
2014-01-08 19:31:00,13.0,2.4,30.35,WSW,256,0.0,0.0,62,0.00,,CLR,0.00,VWS V13.01,2014-01-09 00:31:00,
2014-01-08 19:36:00,13.0,2.4,30.35,WSW,254,0.0,2.0,62,0.00,,CLR,0.00,VWS V13.01,2014-01-09 00:36:00,
2014-01-08 19:41:00,13.0,2.1,30.35,WSW,252,0.0,2.0,61,0.00,,CLR,0.00,VWS V13.01,2014-01-09 00:41:00,
2014-01-08 19:46:00,13.1,1.8,30.35,WSW,252,1.0,2.0,60,0.00,,CLR,0.00,VWS V13.01,2014-01-09 00:46:00,
2014-01-08 19:51:00,13.0,1.7,30.35,WSW,239,0.0,2.0,60,0.00,,CLR,0.00,VWS V13.01,2014-01-09 00:51:00,
2014-01-08 19:56:00,13.3,1.3,30.35,WSW,245,2.0,5.0,58,0.00,,CLR,0.00,VWS V13.01,2014-01-09 00:56:00,
2014-01-08 20:01:00,13.6,1.2,30.36,West,267,0.0,4.0,57,0.00,,CLR,0.00,VWS V13.01,2014-01-09 01:01:00,
2014-01-08 20:06:00,14.1,0.9,30.36,SW,228,3.0,5.0,55,0.00,,CLR,0.00,VWS V13.01,2014-01-09 01:06:00,
2014-01-08 20:11:00,14.6,1.0,30.36,West,273,4.0,6.0,54,0.00,,CLR,0.00,VWS V13.01,2014-01-09 01:11:00,
2014-01-08 20:16:00,15.1,1.1,30.36,SW,221,7.0,8.0,53,0.00,,CLR,0.00,VWS V13.01,2014-01-09 01:16:00,
2014-01-08 20:21:00,15.4,0.9,30.36,SW,223,0.0,8.0,52,0.00,,CLR,0.00,VWS V13.01,2014-01-09 01:21:00,
2014-01-08 20:26:00,15.7,0.8,30.36,SW,221,1.0,8.0,51,0.00,,CLR,0.00,VWS V13.01,2014-01-09 01:26:00,
2014-01-08 20:31:00,15.9,0.6,30.35,SSW,213,2.0,2.0,50,0.00,,CLR,0.00,VWS V13.01,2014-01-09 01:31:00,
2014-01-08 20:36:00,16.0,0.6,30.35,SW,232,1.0,4.0,50,0.00,,CLR,0.00,VWS V13.01,2014-01-09 01:36:00,
2014-01-08 20:41:00,16.2,0.8,30.35,WSW,237,0.0,6.0,50,0.00,,CLR,0.00,VWS V13.01,2014-01-09 01:41:00,
2014-01-08 20:46:00,16.2,0.8,30.35,WSW,257,0.0,6.0,50,0.00,,CLR,0.00,VWS V13.01,2014-01-09 01:46:00,
2014-01-08 20:51:00,16.4,0.6,30.35,West,259,0.0,6.0,49,0.00,,CLR,0.00,VWS V13.01,2014-01-09 01:51:00,
2014-01-08 20:56:00,16.5,0.7,30.35,SW,228,1.0,6.0,49,0.00,,CLR,0.00,VWS V13.01,2014-01-09 01:56:00,
2014-01-08 21:01:00,16.5,1.1,30.35,West,267,2.0,4.0,50,0.00,,CLR,0.00,VWS V13.01,2014-01-09 02:01:00,
2014-01-08 21:06:00,16.5,0.7,30.35,SW,228,1.0,5.0,49,0.00,,CLR,0.00,VWS V13.01,2014-01-09 02:06:00,
2014-01-08 21:11:00,16.7,0.9,30.35,West,263,1.0,5.0,49,0.00,,CLR,0.00,VWS V13.01,2014-01-09 02:11:00,
2014-01-08 21:16:00,16.7,0.9,30.35,SW,220,0.0,5.0,49,0.00,,CLR,0.00,VWS V13.01,2014-01-09 02:16:00,
2014-01-08 21:21:00,16.7,0.9,30.35,West,261,2.0,5.0,49,0.00,,CLR,0.00,VWS V13.01,2014-01-09 02:21:00,
2014-01-08 21:26:00,16.7,0.9,30.35,WSW,238,0.0,5.0,49,0.00,,CLR,0.00,VWS V13.01,2014-01-09 02:26:00,
2014-01-08 21:31:00,16.8,1.0,30.35,SW,222,0.0,1.0,49,0.00,,CLR,0.00,VWS V13.01,2014-01-09 02:31:00,
2014-01-08 21:36:00,16.8,1.0,30.35,West,265,5.0,7.0,49,0.00,,CLR,0.00,VWS V13.01,2014-01-09 02:36:00,
2014-01-08 21:41:00,16.8,1.0,30.35,WSW,250,2.0,7.0,49,0.00,,CLR,0.00,VWS V13.01,2014-01-09 02:41:00,
2014-01-08 21:46:00,17.0,1.1,30.35,WSW,250,2.0,7.0,49,0.00,,CLR,0.00,VWS V13.01,2014-01-09 02:46:00,
2014-01-08 21:51:00,17.0,1.1,30.35,WSW,251,1.0,7.0,49,0.00,,CLR,0.00,VWS V13.01,2014-01-09 02:51:00,
2014-01-08 21:56:00,17.0,1.1,30.35,West,263,3.0,7.0,49,0.00,,CLR,0.00,VWS V13.01,2014-01-09 02:56:00,
2014-01-08 22:01:00,17.0,1.1,30.34,West,271,0.0,2.0,49,0.00,,CLR,0.00,VWS V13.01,2014-01-09 03:01:00,
2014-01-08 22:06:00,17.0,1.1,30.34,SW,236,0.0,4.0,49,0.00,,CLR,0.00,VWS V13.01,2014-01-09 03:06:00,
2014-01-08 22:11:00,17.0,0.7,30.34,WSW,253,0.0,4.0,48,0.00,,CLR,0.00,VWS V13.01,2014-01-09 03:11:00,
2014-01-08 22:16:00,17.0,1.1,30.34,WSW,253,0.0,4.0,49,0.00,,CLR,0.00,VWS V13.01,2014-01-09 03:16:00,
2014-01-08 22:21:00,17.0,1.1,30.34,WSW,253,0.0,4.0,49,0.00,,CLR,0.00,VWS V13.01,2014-01-09 03:21:00,
2014-01-08 22:26:00,17.0,1.1,30.34,WSW,254,0.0,4.0,49,0.00,,CLR,0.00,VWS V13.01,2014-01-09 03:26:00,
2014-01-08 22:31:00,17.0,2.0,30.34,WSW,256,0.0,2.0,51,0.00,,CLR,0.00,VWS V13.01,2014-01-09 03:31:00,
2014-01-08 22:36:00,17.0,1.6,30.34,WSW,247,1.0,5.0,50,0.00,,CLR,0.00,VWS V13.01,2014-01-09 03:36:00,
2014-01-08 22:41:00,17.0,1.6,30.34,WSW,246,1.0,5.0,50,0.00,,CLR,0.00,VWS V13.01,2014-01-09 03:41:00,
2014-01-08 22:46:00,17.0,1.1,30.34,West,277,1.0,5.0,49,0.00,,CLR,0.00,VWS V13.01,2014-01-09 03:46:00,
2014-01-08 22:51:00,17.2,0.9,30.34,West,260,1.0,7.0,48,0.00,,CLR,0.00,VWS V13.01,2014-01-09 03:51:00,
2014-01-08 22:56:00,17.2,0.9,30.34,SW,236,2.0,8.0,48,0.00,,CLR,0.00,VWS V13.01,2014-01-09 03:56:00,
2014-01-08 23:01:00,17.3,1.0,30.35,WSW,256,2.0,3.0,48,0.00,,OVC110,0.00,VWS V13.01,2014-01-09 04:01:00,
2014-01-08 23:06:00,17.3,1.4,30.35,WSW,239,6.0,6.0,49,0.00,,OVC110,0.00,VWS V13.01,2014-01-09 04:06:00,
2014-01-08 23:11:00,17.3,1.4,30.35,WNW,294,2.0,10.0,49,0.00,,OVC110,0.00,VWS V13.01,2014-01-09 04:11:00,
2014-01-08 23:16:00,17.5,1.6,30.34,WSW,238,2.0,10.0,49,0.00,,OVC110,0.00,VWS V13.01,2014-01-09 04:16:00,
2014-01-08 23:21:00,17.5,1.2,30.34,NNW,329,5.0,10.0,48,0.00,,OVC110,0.00,VWS V13.01,2014-01-09 04:21:00,
2014-01-08 23:26:00,17.5,1.2,30.34,WSW,238,1.0,11.0,48,0.00,,OVC110,0.00,VWS V13.01,2014-01-09 04:26:00,
2014-01-08 23:31:00,17.5,1.2,30.34,WSW,242,1.0,8.0,48,0.00,,OVC110,0.00,VWS V13.01,2014-01-09 04:31:00,
2014-01-08 23:36:00,17.5,0.7,30.34,WSW,256,2.0,10.0,47,0.00,,OVC110,0.00,VWS V13.01,2014-01-09 04:36:00,
2014-01-08 23:41:00,17.5,1.2,30.34,WSW,240,2.0,10.0,48,0.00,,OVC110,0.00,VWS V13.01,2014-01-09 04:41:00,
2014-01-08 23:46:00,17.5,1.6,30.33,WSW,253,4.0,10.0,49,0.00,,OVC110,0.00,VWS V13.01,2014-01-09 04:46:00,
2014-01-08 23:51:00,17.5,1.2,30.33,WSW,252,2.0,10.0,48,0.00,,OVC110,0.00,VWS V13.01,2014-01-09 04:51:00,
2014-01-08 23:56:00,17.5,1.2,30.33,WSW,257,4.0,10.0,48,0.00,,OVC110,0.00,VWS V13.01,2014-01-09 04:56:00,